Location: Bowman Observatory
(41.0326°N, 73.6210°W)
Time: 10:15:30
(UTC-05:00)

Cosmos 2298 Rocket - Visible Passes

Search period start: 24 January 2017 00:00
Search period end: 03 February 2017 00:00
Orbit: 777 x 783 km, 74.0° (Epoch: 23 January)

Date Brightness Start Highest point End Pass type
(mag) Time Alt. Az. Time Alt. Az. Time Alt. Az.
24 Jan 6.3 04:52:11 10° SSE 04:56:22 24° E 05:00:33 10° NE visible
24 Jan 4.4 06:33:25 10° SW 06:38:24 41° WNW 06:43:24 10° N visible
25 Jan 6.9 04:20:16 10° SE 04:23:11 15° E 04:26:06 10° ENE visible
25 Jan 4.0 05:59:37 10° SSW 06:04:52 64° WNW 06:10:09 10° NNE visible
26 Jan 4.1 05:26:08 10° SSW 05:31:25 81° ESE 05:36:45 10° NNE visible
27 Jan 4.8 04:52:57 10° S 04:58:03 51° ESE 05:03:10 10° NNE visible
27 Jan 5.2 06:36:40 10° WSW 06:40:40 21° WNW 06:44:41 10° N visible
28 Jan 5.7 04:20:08 10° SSE 04:24:45 32° E 04:29:24 10° NE visible
28 Jan 4.7 06:02:18 10° SW 06:07:00 32° WNW 06:11:44 10° N visible
29 Jan 6.4 03:48:26 12° SE 03:51:31 20° E 03:55:18 10° NE visible
29 Jan 4.2 05:29:11 15° SW 05:33:26 49° WNW 05:38:34 10° N visible
30 Jan 6.9 03:17:57 12° E 03:18:23 12° E 03:20:23 10° ENE visible
30 Jan 3.9 04:58:36 51° SW 04:59:56 78° WNW 05:05:15 10° NNE visible
31 Jan 4.4 04:27:10 61° ENE 04:27:10 61° ENE 04:31:47 10° NNE visible
31 Jan 5.5 06:07:46 15° WNW 06:09:21 17° NW 06:12:46 10° NNW visible
01 Feb 5.8 03:55:20 28° NE 03:55:20 28° NE 03:58:08 10° NNE visible
01 Feb 5.0 05:35:54 25° NW 05:35:54 25° NW 05:39:59 10° N visible
02 Feb 6.7 03:23:15 14° NE 03:23:15 14° NE 03:24:15 10° NE visible
02 Feb 5.1 05:03:48 29° NNW 05:03:48 29° NNW 05:06:57 10° N visible
